Location: Waco, TX
(31.5480°N, 97.1670°W)
Time: 05:59:52
(UTC-05:00)

ISS - Pass Details

Date: 28 September 2022
Orbit: 414 x 417 km, 51.6° (Epoch: 01 October)

Event Time Altitude Azimuth Distance (km) Brightness Sun altitude
Rises 22:07:40 0° 327° (NNW) 2,358 0.7 -36.4°
Enters shadow 22:07:55 - 329° (NNW) 2,262 0.6 -36.4°
Reaches altitude 10° 22:10:04 10° 344° (NNW) 1,493 - -36.8°
Maximum altitude 22:12:46 22° 37° (NE) 958 - -37.4°
Drops below altitude 10° 22:15:28 10° 91° (E) 1,487 - -37.9°
Sets 22:17:51 0° 107° (ESE) 2,347 - -38.3°
